Weather History for KFLO - January, 2013

Change the Weather History Date:

Thursday, January 10, 2013

  Actual Average Record
Temperature  
Mean Temperature 63 °F 44 °F  
Max Temperature 74 °F 55 °F 80 °F (1974)
Min Temperature 52 °F 34 °F 11 °F (1982)
Degree Days  
Heating Degree Days 2 21  
Month to date heating degree days 167 206  
Since 1 July heating degree days 972 1185  
Cooling Degree Days 0 0  
Month to date cooling degree days 0 0  
Year to date cooling degree days 0 0  
Growing Degree Days 13 (Base 50)    
Moisture  
Dew Point 51 °F    
Average Humidity 69    
Maximum Humidity 93    
Minimum Humidity 44    
Precipitation  
Precipitation 0.02 in 0.11 in 1.79 in (1968)
Month to date precipitation 0.25 1.06  
Year to date precipitation 0.25 1.06  
Sea Level Pressure  
Sea Level Pressure 30.42 in    
Wind  
Wind Speed 6 mph (ENE)    
Max Wind Speed 15 mph    
Max Gust Speed 20 mph    
Visibility 10 miles    
Events Rain    
T = Trace of Precipitation, MM = Missing Value Source: NWS Daily Summary

Daily Weather History Graph

Daily Weather History Graph

Search for Another Location

Airport or City:

Trip Planner

Search our weather history database for the weather conditions in past years. The results will help you decide how hot, cold, wet, or windy it might be!

Date:

Astronomy

Jan. 10, 2013 Rise Set
Actual Time 7:25 AM EST 5:28 PM EST
Civil Twilight 6:57 AM EST 5:55 PM EST
Nautical Twilight 6:26 AM EST 6:26 PM EST
Astronomical Twilight 5:56 AM EST 6:56 PM EST
Moon 6:03 AM EST (1/10) 4:33 PM EST (1/10)
Length of Visible Light 10h 57m
Length of Day
10h 02m
Waning Crescent, 2% of the Moon is Illuminated
Jan 10
Waning Crescent
Jan 11
New
Jan 18
First Quarter
Jan 26
Full
Feb 3
Last Quarter

Hourly Weather History & Observations

Time (EST) Temp. Dew Point Humidity Pressure Visibility Wind Dir Wind Speed Gust Speed Precip Events Conditions
12:53 AM 55.0 °F 52.0 °F 89% 30.42 in 9.0 mi North 3.5 mph - N/A   Clear
1:53 AM 54.0 °F 52.0 °F 93% 30.42 in 10.0 mi Calm Calm - N/A   Clear
2:53 AM 55.9 °F 52.0 °F 87% 30.43 in 10.0 mi Calm Calm - N/A   Clear
3:53 AM 54.0 °F 50.0 °F 86% 30.42 in 10.0 mi North 3.5 mph - N/A   Clear
4:53 AM 54.0 °F 50.0 °F 86% 30.41 in 10.0 mi Calm Calm - N/A   Clear
5:53 AM 55.0 °F 51.1 °F 86% 30.41 in 10.0 mi NNE 3.5 mph - N/A   Clear
6:53 AM 53.1 °F 50.0 °F 89% 30.43 in 10.0 mi NNE 5.8 mph - N/A   Clear
7:53 AM 53.1 °F 50.0 °F 89% 30.46 in 9.0 mi Calm Calm - N/A   Clear
8:53 AM 57.9 °F 51.1 °F 78% 30.48 in 10.0 mi NE 8.1 mph - N/A   Clear
9:53 AM 62.1 °F 51.1 °F 67% 30.48 in 10.0 mi ENE 9.2 mph - N/A   Clear
10:53 AM 66.9 °F 51.1 °F 57% 30.46 in 10.0 mi ENE 12.7 mph - N/A   Clear
11:53 AM 68.0 °F 51.1 °F 55% 30.43 in 10.0 mi East 10.4 mph - N/A   Clear
12:53 PM 71.1 °F 51.1 °F 49% 30.40 in 10.0 mi ENE 8.1 mph - N/A   Clear
1:53 PM 73.0 °F 50.0 °F 44% 30.40 in 10.0 mi ENE 11.5 mph - N/A   Clear
2:53 PM 72.0 °F 50.0 °F 46% 30.40 in 10.0 mi ENE 10.4 mph - N/A   Clear
3:53 PM 71.1 °F 50.0 °F 47% 30.40 in 10.0 mi East 9.2 mph - N/A   Clear
4:53 PM 70.0 °F 51.1 °F 51% 30.40 in 10.0 mi East 8.1 mph - N/A   Clear
5:53 PM 66.0 °F 52.0 °F 60% 30.40 in 10.0 mi East 6.9 mph - N/A   Mostly Cloudy
6:53 PM 64.0 °F 53.1 °F 67% 30.42 in 10.0 mi ESE 5.8 mph - N/A   Overcast
7:53 PM 63.0 °F 51.1 °F 65% 30.41 in 10.0 mi East 5.8 mph - N/A   Overcast
8:53 PM 62.1 °F 50.0 °F 65% 30.40 in 10.0 mi East 9.2 mph - N/A   Overcast
9:53 PM 61.0 °F 51.1 °F 70% 30.40 in 10.0 mi ESE 6.9 mph - 0.00 in Rain Light Rain
10:53 PM 60.1 °F 48.9 °F 67% 30.38 in 10.0 mi ESE 8.1 mph - 0.00 in   Overcast
11:10 PM 57.2 °F 50.0 °F 77% 30.39 in 6.0 mi ESE 5.8 mph - 0.01 in Rain Light Rain
11:53 PM 57.0 °F 50.0 °F 77% 30.39 in 7.0 mi ESE 6.9 mph - 0.02 in Rain Light Rain